Location: Aufkirchen
(47.9603°N, 11.3653°E)
Time: 03:39:43
(UTC+01:00)

Vanguard 3 - Pass Details

Date: 29 November 2020
Orbit: 508 x 3262 km, 33.3° (Epoch: 23 January)

Event Time Altitude Azimuth Distance (km) Brightness Sun altitude
Rises 22:02:35 0° 227° (SW) 2,601 - -54.3°
Reaches altitude 10° 22:05:56 10° 192° (SSW) 1,827 - -54.8°
Maximum altitude 22:07:25 12° 170° (S) 1,801 - -55.0°
Drops below altitude 10° 22:09:02 10° 148° (SSE) 2,033 - -55.2°
Sets 22:13:25 0° 117° (ESE) 3,378 - -55.7°
